Location: Brede
(50.9167°N, 0.6000°E)
Time: 21:32:03
(UTC+00:00)

deb Explorer IX - All Passes

Search period start: 05 December 2020 00:00
Search period end: 15 December 2020 00:00
Orbit: 537 x 1105 km, 38.8° (Epoch: 04 December)

Date Brightness Start Highest point End Pass type
(mag) Time Alt. Az. Time Alt. Az. Time Alt. Az.
05 Dec - 14:08:21 10° SSW 14:13:25 22° SSE 14:18:07 10° ESE daylight
05 Dec - 15:54:09 10° SW 15:59:36 27° S 16:04:27 10° SE daylight
05 Dec - 17:41:18 10° WSW 17:45:33 19° SSW 17:49:25 10° SSE visible
06 Dec - 12:03:08 10° SSE 12:04:06 10° SE 12:05:04 10° SE daylight
06 Dec - 13:44:46 10° SSW 13:50:00 22° SSE 13:54:52 10° ESE daylight
06 Dec - 15:30:34 10° WSW 15:36:10 28° S 15:41:14 10° SE daylight
06 Dec - 17:17:43 10° WSW 17:22:11 20° SSW 17:26:15 10° SSE visible
07 Dec - 11:39:16 10° SSE 11:40:39 11° SE 11:42:02 10° SE daylight
07 Dec - 13:21:11 10° SSW 13:26:32 23° SSE 13:31:34 10° ESE daylight
07 Dec - 15:06:59 10° WSW 15:12:45 28° S 15:17:59 10° SE daylight
07 Dec - 16:54:07 10° WSW 16:58:48 21° SSW 17:03:04 10° SSE visible
08 Dec - 11:15:32 10° SSE 11:17:12 11° SE 11:18:50 10° SE daylight
08 Dec - 12:57:37 10° SSW 13:03:05 23° SSE 13:08:15 10° ESE daylight
08 Dec - 14:43:24 10° WSW 14:49:19 29° S 14:54:43 10° SE daylight
08 Dec - 16:30:31 10° WSW 16:35:24 22° SSW 16:39:51 10° SSE visible
09 Dec - 10:51:54 10° SSE 10:53:44 11° SE 10:55:33 10° SE daylight
09 Dec - 12:34:04 10° SSW 12:39:36 24° SSE 12:44:55 10° ESE daylight
09 Dec - 14:19:51 10° WSW 14:25:52 30° S 14:31:25 10° ESE daylight
09 Dec - 16:06:55 10° WSW 16:11:59 22° SSW 16:16:37 10° SSE daylight
10 Dec - 10:28:20 10° SSE 10:30:16 11° SE 10:32:11 10° SE daylight
10 Dec - 12:10:32 10° SSW 12:16:07 24° SSE 12:21:32 10° ESE daylight
10 Dec - 13:56:17 10° WSW 14:02:23 30° S 14:08:06 10° ESE daylight
10 Dec - 15:43:19 10° WSW 15:48:33 23° SSW 15:53:21 10° SSE daylight
11 Dec - 10:04:49 10° SSE 10:06:47 11° SE 10:08:45 10° SE daylight
11 Dec - 11:47:00 10° SSW 11:52:38 24° SSE 11:58:08 10° ESE daylight
11 Dec - 13:32:44 10° WSW 13:38:54 30° S 13:44:45 10° ESE daylight
11 Dec - 15:19:44 10° WSW 15:25:06 23° SSW 15:30:04 10° SSE daylight
12 Dec - 09:41:22 10° SSE 09:43:18 11° SE 09:45:16 10° SE daylight
12 Dec - 11:23:30 10° SSW 11:29:07 24° SSE 11:34:42 10° ESE daylight
12 Dec - 13:09:11 10° WSW 13:15:25 31° S 13:21:22 10° ESE daylight
12 Dec - 14:56:09 10° WSW 15:01:38 24° SSW 15:06:45 10° SSE daylight
12 Dec - 16:47:08 10° SW 16:47:15 10° SW 16:47:21 10° SW visible
13 Dec - 09:17:57 10° SSE 09:19:50 11° SE 09:21:43 10° SE daylight
13 Dec - 11:00:02 10° SSW 11:05:37 24° SSE 11:11:14 10° ESE daylight
13 Dec - 12:45:40 10° WSW 12:51:55 31° S 12:57:58 10° ESE daylight
13 Dec - 14:32:35 10° WSW 14:38:09 24° SSW 14:43:24 10° SSE daylight
13 Dec - 16:22:42 10° SW 16:23:48 10° SW 16:24:54 10° SSW daylight
14 Dec - 08:54:36 10° SSE 08:56:21 11° SE 08:58:07 10° SE daylight
14 Dec - 10:36:34 10° SSW 10:42:07 24° SSE 10:47:45 10° ESE daylight
14 Dec - 12:22:09 10° WSW 12:28:24 31° S 12:34:32 10° ESE daylight
14 Dec - 14:09:02 10° WSW 14:14:39 24° SSW 14:20:02 10° SSE daylight
14 Dec - 15:58:50 10° SW 16:00:21 11° SW 16:01:51 10° SSW daylight
